Year,Month,Day,Hour,Minute,Value (Times are PST for temperature in C)
2016,11,21,00,00,7.60
2016,11,21,00,01,7.60
2016,11,21,00,02,7.70
2016,11,21,00,03,7.70
2016,11,21,00,04,7.80
2016,11,21,00,05,7.80
2016,11,21,00,06,7.80
2016,11,21,00,07,7.90
2016,11,21,00,08,7.90
2016,11,21,00,09,7.90
2016,11,21,00,10,8.00
2016,11,21,00,11,8.00
2016,11,21,00,12,8.10
2016,11,21,00,13,8.10
2016,11,21,00,14,8.10
2016,11,21,00,15,8.10
2016,11,21,00,16,8.10
2016,11,21,00,17,8.10
2016,11,21,00,18,8.10
2016,11,21,00,19,8.10
2016,11,21,00,20,8.10
2016,11,21,00,21,8.20
2016,11,21,00,22,8.20
2016,11,21,00,23,8.20
2016,11,21,00,24,8.20
2016,11,21,00,25,8.20
2016,11,21,00,26,8.20
2016,11,21,00,27,8.20
2016,11,21,00,28,8.20
2016,11,21,00,29,8.20
2016,11,21,00,30,8.20
2016,11,21,00,31,8.20
2016,11,21,00,32,8.20
2016,11,21,00,33,8.10
2016,11,21,00,34,8.10
2016,11,21,00,35,8.10
2016,11,21,00,36,8.10
2016,11,21,00,37,8.10
2016,11,21,00,38,8.10
2016,11,21,00,39,8.00
2016,11,21,00,40,8.00
2016,11,21,00,41,8.00
2016,11,21,00,42,8.00
2016,11,21,00,43,8.00
2016,11,21,00,44,8.00
2016,11,21,00,45,8.00
2016,11,21,00,46,8.00
2016,11,21,00,47,8.10
2016,11,21,00,48,8.10
2016,11,21,00,49,8.20
2016,11,21,00,50,8.20
2016,11,21,00,51,8.20
2016,11,21,00,52,8.30
2016,11,21,00,53,8.30
2016,11,21,00,54,8.30
2016,11,21,00,55,8.30
2016,11,21,00,56,8.30
2016,11,21,00,57,8.20
2016,11,21,00,58,8.20
2016,11,21,00,59,8.20
2016,11,21,01,00,8.20
2016,11,21,01,01,8.20
2016,11,21,01,02,8.20
2016,11,21,01,03,8.20
2016,11,21,01,04,8.20
2016,11,21,01,05,8.30
2016,11,21,01,06,8.30
2016,11,21,01,07,8.30
2016,11,21,01,08,8.30
2016,11,21,01,09,8.30
2016,11,21,01,10,8.30
2016,11,21,01,11,8.30
2016,11,21,01,12,8.30
2016,11,21,01,13,8.30
2016,11,21,01,14,8.30
2016,11,21,01,15,8.30
2016,11,21,01,16,8.30
2016,11,21,01,17,8.30
2016,11,21,01,18,8.30
2016,11,21,01,19,8.30
2016,11,21,01,20,8.30
2016,11,21,01,21,8.20
2016,11,21,01,22,8.20
2016,11,21,01,23,8.20
2016,11,21,01,24,8.20
2016,11,21,01,25,8.10
2016,11,21,01,26,8.10
2016,11,21,01,27,8.00
2016,11,21,01,28,8.00
2016,11,21,01,29,8.00
2016,11,21,01,30,7.90
2016,11,21,01,31,7.90
2016,11,21,01,32,7.90
2016,11,21,01,33,8.00
2016,11,21,01,34,8.00
2016,11,21,01,35,8.00
2016,11,21,01,36,8.00
2016,11,21,01,37,8.00
2016,11,21,01,38,8.10
2016,11,21,01,39,8.10
2016,11,21,01,40,8.20
2016,11,21,01,41,8.30
2016,11,21,01,42,8.40
2016,11,21,01,43,8.40
2016,11,21,01,44,8.50
2016,11,21,01,45,8.50
2016,11,21,01,46,8.50
2016,11,21,01,47,8.60
2016,11,21,01,48,8.60
2016,11,21,01,49,8.60
2016,11,21,01,50,8.60
2016,11,21,01,51,8.60
2016,11,21,01,52,8.60
2016,11,21,01,53,8.60
2016,11,21,01,54,8.60
2016,11,21,01,55,8.50
2016,11,21,01,56,8.50
2016,11,21,01,57,8.50
2016,11,21,01,58,8.50
2016,11,21,01,59,8.60
2016,11,21,02,00,8.60
2016,11,21,02,01,8.60
2016,11,21,02,02,8.60
2016,11,21,02,03,8.60
2016,11,21,02,04,8.60
2016,11,21,02,05,8.60
2016,11,21,02,06,8.50
2016,11,21,02,07,8.50
2016,11,21,02,08,8.50
2016,11,21,02,09,8.40
2016,11,21,02,10,8.40
2016,11,21,02,11,8.40
2016,11,21,02,12,8.40
2016,11,21,02,13,8.40
2016,11,21,02,14,8.30
2016,11,21,02,15,8.30
2016,11,21,02,16,8.20
2016,11,21,02,17,8.10
2016,11,21,02,18,8.10
2016,11,21,02,19,8.00
2016,11,21,02,20,8.00
2016,11,21,02,21,7.90
2016,11,21,02,22,7.90
2016,11,21,02,23,7.90
2016,11,21,02,24,7.80
2016,11,21,02,25,7.80
2016,11,21,02,26,7.80
2016,11,21,02,27,7.70
2016,11,21,02,28,7.70
2016,11,21,02,29,7.60
2016,11,21,02,30,7.60
2016,11,21,02,31,7.60
2016,11,21,02,32,7.50
2016,11,21,02,33,7.50
2016,11,21,02,34,7.40
2016,11,21,02,35,7.40
2016,11,21,02,36,7.40
2016,11,21,02,37,7.30
2016,11,21,02,38,7.30
2016,11,21,02,39,7.30
2016,11,21,02,40,7.30
2016,11,21,02,41,7.20
2016,11,21,02,42,7.20
2016,11,21,02,43,7.20
2016,11,21,02,44,7.10
2016,11,21,02,45,7.10
2016,11,21,02,46,7.10
2016,11,21,02,47,7.10
2016,11,21,02,48,7.00
2016,11,21,02,49,7.00
2016,11,21,02,50,7.00
2016,11,21,02,51,6.90
2016,11,21,02,52,6.90
2016,11,21,02,53,6.90
2016,11,21,02,54,6.90
2016,11,21,02,55,6.90
2016,11,21,02,56,6.80
2016,11,21,02,57,6.80
2016,11,21,02,58,6.70
2016,11,21,02,59,6.70
2016,11,21,03,00,6.70
2016,11,21,03,01,6.60
2016,11,21,03,02,6.60
2016,11,21,03,03,6.60
2016,11,21,03,04,6.60
2016,11,21,03,05,6.50
2016,11,21,03,06,6.50
2016,11,21,03,07,6.60
2016,11,21,03,08,6.50
2016,11,21,03,09,6.60
2016,11,21,03,10,6.60
2016,11,21,03,11,6.60
2016,11,21,03,12,6.60
2016,11,21,03,13,6.60
2016,11,21,03,14,6.60
2016,11,21,03,15,6.60
2016,11,21,03,16,6.50
2016,11,21,03,17,6.50
2016,11,21,03,18,6.50
2016,11,21,03,19,6.50
2016,11,21,03,20,6.40
2016,11,21,03,21,6.40
2016,11,21,03,22,6.40
2016,11,21,03,23,6.40
2016,11,21,03,24,6.30
2016,11,21,03,25,6.30
2016,11,21,03,26,6.30
2016,11,21,03,27,6.20
2016,11,21,03,28,6.20
2016,11,21,03,29,6.20
2016,11,21,03,30,6.20
2016,11,21,03,31,6.20
2016,11,21,03,32,6.10
2016,11,21,03,33,6.10
2016,11,21,03,34,6.10
2016,11,21,03,35,6.10
2016,11,21,03,36,6.10
2016,11,21,03,37,6.00
2016,11,21,03,38,6.00
2016,11,21,03,39,6.00
2016,11,21,03,40,6.00
2016,11,21,03,41,5.90
2016,11,21,03,42,5.90
2016,11,21,03,43,5.90
2016,11,21,03,44,5.90
2016,11,21,03,45,5.90
2016,11,21,03,46,5.90
2016,11,21,03,47,5.90
2016,11,21,03,48,5.80
2016,11,21,03,49,5.80
2016,11,21,03,50,5.80
2016,11,21,03,51,5.80
2016,11,21,03,52,5.80
2016,11,21,03,53,5.80
2016,11,21,03,54,5.80
2016,11,21,03,55,5.80
2016,11,21,03,56,5.80
2016,11,21,03,57,5.80
2016,11,21,03,58,5.80
2016,11,21,03,59,5.80
2016,11,21,04,00,5.80
2016,11,21,04,01,5.90
2016,11,21,04,02,5.90
2016,11,21,04,03,6.00
2016,11,21,04,04,6.10
2016,11,21,04,05,6.10
2016,11,21,04,06,6.20
2016,11,21,04,07,6.20
2016,11,21,04,08,6.20
2016,11,21,04,09,6.20
2016,11,21,04,10,6.20
2016,11,21,04,11,6.30
2016,11,21,04,12,6.30
2016,11,21,04,13,6.30
2016,11,21,04,14,6.20
2016,11,21,04,15,6.30
2016,11,21,04,16,6.30
2016,11,21,04,17,6.30
2016,11,21,04,18,6.30
2016,11,21,04,19,6.30
2016,11,21,04,20,6.30
2016,11,21,04,21,6.20
2016,11,21,04,22,6.20
2016,11,21,04,23,6.10
2016,11,21,04,24,6.10
2016,11,21,04,25,6.10
2016,11,21,04,26,6.10
2016,11,21,04,27,6.10
2016,11,21,04,28,6.20
2016,11,21,04,29,6.20
2016,11,21,04,30,6.20
2016,11,21,04,31,6.20
2016,11,21,04,32,6.20
2016,11,21,04,33,6.20
2016,11,21,04,34,6.20
2016,11,21,04,35,6.20
2016,11,21,04,36,6.20
2016,11,21,04,37,6.20
2016,11,21,04,38,6.20
2016,11,21,04,39,6.20
2016,11,21,04,40,6.20
2016,11,21,04,41,6.20
2016,11,21,04,42,6.20
2016,11,21,04,43,6.30
2016,11,21,04,44,6.30
2016,11,21,04,45,6.30
2016,11,21,04,46,6.30
2016,11,21,04,47,6.30
2016,11,21,04,48,6.30
2016,11,21,04,49,6.20
2016,11,21,04,50,6.20
2016,11,21,04,51,6.20
2016,11,21,04,52,6.20
2016,11,21,04,53,6.20
2016,11,21,04,54,6.20
2016,11,21,04,55,6.20
2016,11,21,04,56,6.20
2016,11,21,04,57,6.20
2016,11,21,04,58,6.20
2016,11,21,04,59,6.20
2016,11,21,05,00,6.20
2016,11,21,05,01,6.20
2016,11,21,05,02,6.20
2016,11,21,05,03,6.20
2016,11,21,05,04,6.30
2016,11,21,05,05,6.40
2016,11,21,05,06,6.50
2016,11,21,05,07,6.80
2016,11,21,05,08,7.10
2016,11,21,05,09,7.30
2016,11,21,05,10,7.50
2016,11,21,05,11,7.70
2016,11,21,05,12,7.90
2016,11,21,05,13,8.00
2016,11,21,05,14,8.10
2016,11,21,05,15,8.10
2016,11,21,05,16,8.10
2016,11,21,05,17,8.10
2016,11,21,05,18,8.10
2016,11,21,05,19,8.00
2016,11,21,05,20,8.00
2016,11,21,05,21,7.90
2016,11,21,05,22,7.80
2016,11,21,05,23,7.70
2016,11,21,05,24,7.60
2016,11,21,05,25,7.60
2016,11,21,05,26,7.50
2016,11,21,05,27,7.40
2016,11,21,05,28,7.30
2016,11,21,05,29,7.30
2016,11,21,05,30,7.20
2016,11,21,05,31,7.10
2016,11,21,05,32,7.10
2016,11,21,05,33,7.00
2016,11,21,05,34,6.90
2016,11,21,05,35,6.80
2016,11,21,05,36,6.70
2016,11,21,05,37,6.70
2016,11,21,05,38,6.60
2016,11,21,05,39,6.50
2016,11,21,05,40,6.40
2016,11,21,05,41,6.40
2016,11,21,05,42,6.30
2016,11,21,05,43,6.20
2016,11,21,05,44,6.20
2016,11,21,05,45,6.20
2016,11,21,05,46,6.10
2016,11,21,05,47,6.10
2016,11,21,05,48,6.00
2016,11,21,05,49,6.00
2016,11,21,05,50,5.90
2016,11,21,05,51,5.90
2016,11,21,05,52,5.90
2016,11,21,05,53,5.90
2016,11,21,05,54,5.90
2016,11,21,05,55,5.90
2016,11,21,05,56,5.90
2016,11,21,05,57,5.90
2016,11,21,05,58,5.90
2016,11,21,05,59,5.80
2016,11,21,06,00,5.80
2016,11,21,06,01,5.80
2016,11,21,06,02,5.80
2016,11,21,06,03,5.80
2016,11,21,06,04,5.70
2016,11,21,06,05,5.70
2016,11,21,06,06,5.70
2016,11,21,06,07,5.70
2016,11,21,06,08,5.70
2016,11,21,06,09,5.70
2016,11,21,06,10,5.60
2016,11,21,06,11,5.60
2016,11,21,06,12,5.60
2016,11,21,06,13,5.50
2016,11,21,06,14,5.50
2016,11,21,06,15,5.50
2016,11,21,06,16,5.50
2016,11,21,06,17,5.50
2016,11,21,06,18,5.40
2016,11,21,06,19,5.40
2016,11,21,06,20,5.40
2016,11,21,06,21,5.30
2016,11,21,06,22,5.30
2016,11,21,06,23,5.20
2016,11,21,06,24,5.20
2016,11,21,06,25,5.20
2016,11,21,06,26,5.20
2016,11,21,06,27,5.20
2016,11,21,06,28,5.20
2016,11,21,06,29,5.20
2016,11,21,06,30,5.20
2016,11,21,06,31,5.20
2016,11,21,06,32,5.20
2016,11,21,06,33,5.20
2016,11,21,06,34,5.20
2016,11,21,06,35,5.20
2016,11,21,06,36,5.20
2016,11,21,06,37,5.20
2016,11,21,06,38,5.20
2016,11,21,06,39,5.20
2016,11,21,06,40,5.20
2016,11,21,06,41,5.20
2016,11,21,06,42,5.20
2016,11,21,06,43,5.30
2016,11,21,06,44,5.30
2016,11,21,06,45,5.40
2016,11,21,06,46,5.40
2016,11,21,06,47,5.30
2016,11,21,06,48,5.30
2016,11,21,06,49,5.30
2016,11,21,06,50,5.30
2016,11,21,06,51,5.30
2016,11,21,06,52,5.20
2016,11,21,06,53,5.20
2016,11,21,06,54,5.20
2016,11,21,06,55,5.20
2016,11,21,06,56,5.20
2016,11,21,06,57,5.20
2016,11,21,06,58,5.20
2016,11,21,06,59,5.20
2016,11,21,07,00,5.10
2016,11,21,07,01,5.10
2016,11,21,07,02,5.10
2016,11,21,07,03,5.00
2016,11,21,07,04,5.00
2016,11,21,07,05,4.90
2016,11,21,07,06,4.90
2016,11,21,07,07,4.80
2016,11,21,07,08,4.80
2016,11,21,07,09,4.80
2016,11,21,07,10,4.80
2016,11,21,07,11,4.70
2016,11,21,07,12,4.70
2016,11,21,07,13,4.70
2016,11,21,07,14,4.70
2016,11,21,07,15,4.80
2016,11,21,07,16,4.80
2016,11,21,07,17,4.90
2016,11,21,07,18,4.90
2016,11,21,07,19,4.90
2016,11,21,07,20,4.90
2016,11,21,07,21,4.90
2016,11,21,07,22,4.90
2016,11,21,07,23,4.80
2016,11,21,07,24,4.80
2016,11,21,07,25,4.90
2016,11,21,07,26,4.90
2016,11,21,07,27,4.90
2016,11,21,07,28,4.90
2016,11,21,07,29,4.90
2016,11,21,07,30,4.90
2016,11,21,07,31,4.90
2016,11,21,07,32,4.90
2016,11,21,07,33,4.90
2016,11,21,07,34,4.90
2016,11,21,07,35,4.80
2016,11,21,07,36,4.80
2016,11,21,07,37,4.80
2016,11,21,07,38,4.80
2016,11,21,07,39,4.80
2016,11,21,07,40,4.80
2016,11,21,07,41,4.70
2016,11,21,07,42,4.70
2016,11,21,07,43,4.80
2016,11,21,07,44,4.80
2016,11,21,07,45,4.80
2016,11,21,07,46,4.80
2016,11,21,07,47,4.80
2016,11,21,07,48,4.80
2016,11,21,07,49,4.80
2016,11,21,07,50,4.80
2016,11,21,07,51,4.80
2016,11,21,07,52,4.80
2016,11,21,07,53,4.70
2016,11,21,07,54,4.70
2016,11,21,07,55,4.70
2016,11,21,07,56,4.70
2016,11,21,07,57,4.60
2016,11,21,07,58,4.60
2016,11,21,07,59,4.60
2016,11,21,08,00,4.50
2016,11,21,08,01,4.50
2016,11,21,08,02,4.50
2016,11,21,08,03,4.60
2016,11,21,08,04,4.60
